When you browse on this site, cookies collect data to enhance your experience and personalize the content and advertising you see.
Visit our Privacy Policy to learn more. By continuing to use the site, you agree to this use of cookies and data.

Previsão horária em Molgino

Hoje, 9 Julho, Quinta-feira

Tempo Temperatura Precipitação Vento Pressão Humidade
00:00 +12°C° 0 mm 2 m/s 743 mmHg 86%
01:00 +12°C° 0 mm 2 m/s 744 mmHg 88%
02:00 +12°C° 0 mm 1 m/s 744 mmHg 90%
03:00 +10°C° 0.1 mm 2 m/s 744 mmHg 91%
04:00 +10°C° 0.1 mm 2 m/s 744 mmHg 93%
05:00 +10°C° 0.1 mm 2 m/s 744 mmHg 94%
06:00 +12°C° 0 mm 2 m/s 744 mmHg 84%
07:00 +12°C° 0 mm 3 m/s 745 mmHg 75%
08:00 +14°C° 0 mm 3 m/s 745 mmHg 65%
09:00 +16°C° 0 mm 3 m/s 745 mmHg 59%
10:00 +17°C° 0 mm 4 m/s 745 mmHg 54%
11:00 +18°C° 0 mm 4 m/s 746 mmHg 48%
12:00 +18°C° 0 mm 4 m/s 746 mmHg 47%
13:00 +19°C° 0 mm 3 m/s 746 mmHg 45%
14:00 +20°C° 0 mm 3 m/s 746 mmHg 43%
15:00 +19°C° 0.1 mm 3 m/s 746 mmHg 49%
16:00 +19°C° 0.1 mm 3 m/s 746 mmHg 55%
17:00 +18°C° 0.1 mm 3 m/s 746 mmHg 60%
18:00 +17°C° 0.1 mm 3 m/s 746 mmHg 68%
19:00 +16°C° 0.1 mm 2 m/s 746 mmHg 76%
20:00 +14°C° 0.1 mm 1 m/s 746 mmHg 84%
21:00 +13°C° 0 mm 1 m/s 746 mmHg 87%
22:00 +12°C° 0 mm 2 m/s 746 mmHg 90%
23:00 +10°C° 0 mm 2 m/s 747 mmHg 93%

Amanhã, 10 Julho, Sexta-feira

Tempo Temperatura Precipitação Vento Pressão Humidade
00:00 +10°C° 0 mm 2 m/s 747 mmHg 94%
01:00 +10°C° 0 mm 2 m/s 747 mmHg 95%
02:00 +9°C° 0 mm 2 m/s 747 mmHg 97%
03:00 +10°C° 0 mm 2 m/s 747 mmHg 95%
04:00 +10°C° 0 mm 2 m/s 747 mmHg 94%
05:00 +12°C° 0 mm 2 m/s 747 mmHg 93%
06:00 +13°C° 0 mm 2 m/s 747 mmHg 85%
07:00 +14°C° 0 mm 3 m/s 747 mmHg 78%
08:00 +17°C° 0 mm 3 m/s 747 mmHg 70%
09:00 +16°C° 0.4 mm 3 m/s 746 mmHg 76%
10:00 +15°C° 0.4 mm 4 m/s 746 mmHg 83%
11:00 +14°C° 0.4 mm 4 m/s 745 mmHg 90%
12:00 +14°C° 0.8 mm 4 m/s 745 mmHg 92%
13:00 +14°C° 0.8 mm 4 m/s 745 mmHg 94%
14:00 +14°C° 0.8 mm 5 m/s 744 mmHg 96%
15:00 +15°C° 0.5 mm 5 m/s 744 mmHg 95%
16:00 +17°C° 0.5 mm 5 m/s 743 mmHg 93%
17:00 +19°C° 0.5 mm 4 m/s 743 mmHg 92%
18:00 +19°C° 0.5 mm 4 m/s 743 mmHg 92%
19:00 +18°C° 0.5 mm 4 m/s 743 mmHg 93%
20:00 +18°C° 0.5 mm 3 m/s 743 mmHg 94%
21:00 +18°C° 0 mm 3 m/s 743 mmHg 95%
22:00 +17°C° 0 mm 3 m/s 744 mmHg 96%
23:00 +16°C° 0 mm 2 m/s 744 mmHg 98%

Depois de amanhã, 11 Julho, Sábado

Tempo Temperatura Precipitação Vento Pressão Humidade
00:00 +16°C° 0 mm 2 m/s 744 mmHg 98%
01:00 +15°C° 0 mm 2 m/s 745 mmHg 98%
02:00 +15°C° 0 mm 1 m/s 745 mmHg 98%
03:00 +15°C° 0 mm 1 m/s 745 mmHg 98%
04:00 +15°C° 0 mm 1 m/s 745 mmHg 98%
05:00 +15°C° 0 mm 1 m/s 746 mmHg 98%
06:00 +16°C° 0 mm 2 m/s 745 mmHg 98%
07:00 +17°C° 0 mm 2 m/s 745 mmHg 97%
08:00 +18°C° 0 mm 2 m/s 745 mmHg 96%
09:00 +18°C° 0.8 mm 2 m/s 745 mmHg 96%
10:00 +19°C° 0.8 mm 2 m/s 745 mmHg 96%
11:00 +19°C° 0.8 mm 3 m/s 745 mmHg 96%
12:00 +20°C° 0.5 mm 3 m/s 745 mmHg 94%
13:00 +21°C° 0.5 mm 3 m/s 745 mmHg 91%
14:00 +24°C° 0.5 mm 3 m/s 745 mmHg 89%
15:00 +22°C° 0.9 mm 3 m/s 745 mmHg 91%
16:00 +20°C° 0.9 mm 3 m/s 745 mmHg 92%
17:00 +19°C° 0.9 mm 3 m/s 746 mmHg 94%
18:00 +18°C° 0.1 mm 2 m/s 746 mmHg 95%
19:00 +18°C° 0.1 mm 2 m/s 746 mmHg 96%
20:00 +17°C° 0.1 mm 2 m/s 747 mmHg 97%
21:00 +17°C° 0.1 mm 2 m/s 747 mmHg 97%
22:00 +16°C° 0.1 mm 2 m/s 747 mmHg 98%
23:00 +16°C° 0.1 mm 2 m/s 747 mmHg 98%

12 Julho, Domingo

Tempo Temperatura Precipitação Vento Pressão Humidade
00:00 +15°C° 0 mm 2 m/s 748 mmHg 98%
01:00 +15°C° 0 mm 1 m/s 748 mmHg 98%
02:00 +15°C° 0 mm 1 m/s 748 mmHg 98%
03:00 +14°C° 0 mm 1 m/s 748 mmHg 98%
04:00 +14°C° 0 mm 1 m/s 748 mmHg 98%
05:00 +14°C° 0 mm 1 m/s 748 mmHg 97%
06:00 +14°C° 0 mm 1 m/s 748 mmHg 95%
07:00 +14°C° 0 mm 1 m/s 748 mmHg 94%
08:00 +14°C° 0 mm 2 m/s 749 mmHg 92%
09:00 +14°C° 0.3 mm 1 m/s 749 mmHg 92%
10:00 +14°C° 0.3 mm 1 m/s 749 mmHg 93%
11:00 +14°C° 0.3 mm 1 m/s 749 mmHg 93%
12:00 +14°C° 0.2 mm 1 m/s 749 mmHg 94%
13:00 +14°C° 0.2 mm 1 m/s 749 mmHg 95%
14:00 +13°C° 0.2 mm 1 m/s 749 mmHg 96%
15:00 +13°C° 0.1 mm 1 m/s 749 mmHg 96%
16:00 +13°C° 0.1 mm 1 m/s 749 mmHg 96%
17:00 +13°C° 0.1 mm 1 m/s 748 mmHg 96%
18:00 +13°C° 0.1 mm 1 m/s 748 mmHg 97%
19:00 +13°C° 0.1 mm 1 m/s 748 mmHg 97%
20:00 +13°C° 0.1 mm 1 m/s 748 mmHg 97%
21:00 +13°C° 0.2 mm 1 m/s 748 mmHg 97%
22:00 +12°C° 0.2 mm 2 m/s 748 mmHg 96%
23:00 +12°C° 0.2 mm 2 m/s 748 mmHg 96%

13 Julho, Segunda-feira

Tempo Temperatura Precipitação Vento Pressão Humidade
00:00 +12°C° 0.7 mm 2 m/s 747 mmHg 97%
01:00 +12°C° 0.7 mm 2 m/s 747 mmHg 97%
02:00 +12°C° 0.7 mm 2 m/s 747 mmHg 98%
03:00 +12°C° 1.3 mm 2 m/s 746 mmHg 97%
04:00 +12°C° 1.3 mm 2 m/s 746 mmHg 97%
05:00 +11°C° 1.3 mm 3 m/s 745 mmHg 97%
06:00 +12°C° 0.4 mm 2 m/s 745 mmHg 97%
07:00 +12°C° 0.4 mm 2 m/s 745 mmHg 97%
08:00 +12°C° 0.4 mm 2 m/s 745 mmHg 97%
09:00 +12°C° 0.3 mm 3 m/s 745 mmHg 97%
10:00 +12°C° 0.3 mm 3 m/s 745 mmHg 96%
11:00 +12°C° 0.3 mm 3 m/s 744 mmHg 96%
12:00 +12°C° 0.4 mm 4 m/s 744 mmHg 96%
13:00 +12°C° 0.4 mm 4 m/s 744 mmHg 96%
14:00 +12°C° 0.4 mm 4 m/s 744 mmHg 96%
15:00 +12°C° 0.1 mm 4 m/s 743 mmHg 96%
16:00 +12°C° 0.1 mm 4 m/s 743 mmHg 96%
17:00 +12°C° 0.1 mm 4 m/s 743 mmHg 96%
18:00 +12°C° 0.1 mm 4 m/s 743 mmHg 95%
19:00 +12°C° 0.1 mm 4 m/s 743 mmHg 95%
20:00 +12°C° 0.1 mm 4 m/s 743 mmHg 95%
21:00 +12°C° 0 mm 4 m/s 742 mmHg 94%
22:00 +12°C° 0 mm 4 m/s 742 mmHg 94%
23:00 +12°C° 0 mm 4 m/s 741 mmHg 94%

14 Julho, Terça-feira

Tempo Temperatura Precipitação Vento Pressão Humidade
00:00 +12°C° 0.2 mm 4 m/s 741 mmHg 94%
01:00 +12°C° 0.2 mm 4 m/s 741 mmHg 95%
02:00 +12°C° 0.2 mm 4 m/s 741 mmHg 96%
03:00 +12°C° 0.2 mm 4 m/s 741 mmHg 96%
04:00 +12°C° 0.2 mm 4 m/s 740 mmHg 97%
05:00 +12°C° 0.2 mm 4 m/s 740 mmHg 97%
06:00 +12°C° 0.2 mm 4 m/s 740 mmHg 97%
07:00 +12°C° 0.2 mm 4 m/s 740 mmHg 97%
08:00 +12°C° 0.2 mm 4 m/s 740 mmHg 97%
09:00 +12°C° 0.6 mm 4 m/s 740 mmHg 97%
10:00 +12°C° 0.6 mm 4 m/s 740 mmHg 97%
11:00 +13°C° 0.6 mm 4 m/s 740 mmHg 97%
12:00 +13°C° 1.2 mm 4 m/s 740 mmHg 97%
13:00 +13°C° 1.2 mm 4 m/s 740 mmHg 97%
14:00 +13°C° 1.2 mm 5 m/s 740 mmHg 97%
15:00 +13°C° 1.1 mm 5 m/s 739 mmHg 97%
16:00 +13°C° 1.1 mm 4 m/s 739 mmHg 96%
17:00 +13°C° 1.1 mm 4 m/s 739 mmHg 96%
18:00 +13°C° 0.4 mm 4 m/s 739 mmHg 96%
19:00 +13°C° 0.4 mm 3 m/s 739 mmHg 95%
20:00 +13°C° 0.4 mm 3 m/s 739 mmHg 95%
21:00 +13°C° 0.2 mm 3 m/s 740 mmHg 95%
22:00 +13°C° 0.2 mm 2 m/s 740 mmHg 96%
23:00 +13°C° 0.2 mm 2 m/s 740 mmHg 96%
Mostrar mais